Regional Weather Roundup
Issued by NWS San Diego, CA

Home | Current Version | Previous Version | Text Only | Print | Product List | Glossary On
Versions: 1 2 3 4 5 6 7 8 9 10 11 12 13 14 15 16 17 18 19 20 21 22 23 24 25 26 27 28 29 30 31 32 33 34 35 36 37 38 39 40 41 42 43 44 45 46 47 48
000
ASUS46 KSGX 031911
RWRSGX

SAN DIEGO HOURLY WEATHER ROUNDUP
NATIONAL WEATHER SERVICE SAN DIEGO CA
1200 PM PDT THU SEP 03 2015

NOTE: "FAIR" INDICATES FEW OR NO CLOUDS BELOW 12,000 FEET WITH NO
SIGNIFICANT WEATHER AND/OR OBSTRUCTIONS TO VISIBILITY.

CAZ042-043-060-061-PZZ750-775-032000-

GREATER SAN DIEGO AREA

CITY           SKY/WX    TMP DP  RH WIND       PRES   REMARKS
LINDBERGH FLD  MOSUNNY   75  58  55 W9        29.93F
POINT LOMA       N/A     75  58  55 W10         N/A
NATIONAL CITY    N/A     74  62  65 NW3       29.92F
CHULA VISTA      N/A     75  63  66 W5        29.85F
IMPERIAL BEACH MOSUNNY   73  58  59 W12       29.93F
BROWN FIELD    SUNNY     74  58  57 W9        29.92F
MIRAMAR MCAS   MOSUNNY   79  57  46 NW10      29.92F
MONTGOMERY FLD SUNNY     75  58  55 W7        29.92F

$$

NORTH SAN DIEGO COUNTY

CITY           SKY/WX    TMP DP  RH WIND       PRES   REMARKS
CAMP PENDLETON SUNNY     75  58  55 W9G16     29.92F
OCEANSIDE AP   SUNNY     75  58  55 W9        29.91F
OCEANSIDE HBR    N/A     70  62  74 SW10      29.95F
VISTA            N/A     73  62  67 W3        29.90F
CARLSBAD       SUNNY     73  59  61 SW10      29.92F
DEL MAR          N/A     74  62  64 W3        29.95F
LA JOLLA SCRIP   N/A    N/A N/A N/A W8        29.90F
FALLBROOK        N/A     77  60  54 SW5       29.90F
ESCONDIDO        N/A     80  59  49 SW5       29.92F
SAN MARCOS       N/A     74  61  65 W3        29.90F
POWAY            N/A     79  60  52 W1        29.92F

$$

EAST SAN DIEGO COUNTY

CITY           SKY/WX    TMP DP  RH WIND       PRES   REMARKS
RAMONA         SUNNY     77  57  50 W10       29.93F
SANTEE LAKES     N/A     78  60  52 CALM      29.90F
LA MESA          N/A     74  59  58 CALM      29.85F
JAMUL            N/A     76  61  60 W3        29.90F
DESCANSO N       N/A     78  48  34 W2        29.77F
CAMPO            N/A     79  49  34 SW14      29.92F

$$

ORANGE COUNTY AND THE LOS ANGELES BASIN

CITY           SKY/WX    TMP DP  RH WIND       PRES   REMARKS
JOHN WAYNE AP  MOSUNNY   73  57  57 SW7       29.92F
LAGUNA BEACH     N/A     76  62  62 S2        29.88F
LAKE FOREST FR   N/A     77  57  50 CALM      29.82F
SANTA ANA        N/A     77  62  58 CALM      29.87F
HUNTINGTON BCH   N/A     75  62  62 CALM      29.95F
LOS ALAMITOS   MOSUNNY   75  58  55 S9        29.92F
FULLERTON      PTSUNNY   74  57  55 CALM      29.91F
L.A. AP        MOSUNNY   74  56  53 SE5       29.92F
L.A. DOWNTOWN  MOSUNNY   75  56  51 CALM      29.91F

$$

THE INLAND EMPIRE

CITY           SKY/WX    TMP DP  RH WIND       PRES   REMARKS
CORONA         MOSUNNY   74  59  59 CALM      29.93F
CHINO          MOSUNNY   74  57  55 VRB3      29.93F
ONTARIO        MOSUNNY   72  57  59 VRB5      29.93F
RIVERSIDE AP   SUNNY     73  57  57 VRB6      29.93F
MORENO VALLEY    N/A     75  63  65 S5        29.90F
MARCH ARB      SUNNY     74  56  54 NW2       29.93F
HORSETHIEF CYN   N/A     74  55  51 N5        29.93F
PERRIS           N/A     74  60  61 CALM      29.95F
HEMET EAST       N/A     70  54  56 SW2       29.93S
FRENCH VALLEY  FAIR      70  55  60 S3        29.94F
TEMECULA         N/A     75  60  60 W2        29.89F

$$

SAN BERNARDINO AND RIVERSIDE COUNTY MOUNTAINS

CITY           SKY/WX    TMP DP  RH WIND       PRES   REMARKS
BIG BEAR AP    SUNNY     70  32  24 SW8G17    30.15S
ANGELUS OAKS     N/A     71  43  35 CALM      29.76F
PINE COVE        N/A     70  35  27 W3        29.82F

$$

SOUTHERN DESERT INCLUDING THE COACHELLA VALLEY

CITY           SKY/WX    TMP DP  RH WIND       PRES   REMARKS
PALM SPRINGS   SUNNY     94  39  14 SW6       29.80F
THOUSAND PALMS   N/A     94  41  15 SW3       29.76F
PALM DESERT      N/A     96  46  17 CALM        N/A
THERMAL        SUNNY     96  46  18 NW7       29.74F
BLYTHE         SUNNY     97  55  24 S13       29.78F HX  95
IMPERIAL AP    SUNNY     97  48  18 NW3       29.75F
EL CENTRO NAS  MOSUNNY   97  47  18 CALM      29.76F
YUMA AZ        MOSUNNY   98  61  29 SW8       29.76F HX  98
MEXICALI       SUNNY     97  50  20 CALM      29.77F

$$

UPPER DESERT

CITY           SKY/WX    TMP DP  RH WIND       PRES   REMARKS
VICTORVILLE AP SUNNY     84  21  10 SW16G23   29.92F
HESPERIA         N/A     83  27  13 SW9       29.91F
APPLE VALLEY     N/A     82  26  12 S21       29.95F
PALMDALE       SUNNY     80  43  26 SW13      29.91F
LANCASTER      SUNNY     81  47  30 W14       29.91F
EDWARDS AFB    MOSUNNY   82  33  17 SW10      29.88F
DAGGETT        SUNNY     86  29  12 W9        29.87F
29 PALMS N     SUNNY     89  35  14 VRB3      29.92F
NEEDLES        SUNNY    100  30   8 SW14G25   29.79F

$$

REGIONAL REPORTS

CITY           SKY/WX    TMP DP  RH WIND       PRES   REMARKS
SANTA BARBARA  PTSUNNY   71  60  68 S8        29.91F
SANDBERG       SUNNY     70  41  34 S15G23    30.04S
LAS VEGAS NV   MOSUNNY   95  34  11 SW16G23   29.79F
PHOENIX AZ     PTSUNNY   95  54  25 S5        29.84F
TIJUANA        SUNNY     75  55  50 N8        29.94F
ENSENADA NW      N/A     73  32  22 W3        29.89F

$$

OFFSHORE ISLANDS

CITY           SKY/WX    TMP DP  RH WIND       PRES   REMARKS
CATALINA ARPT  CLOUDY    65  56  72 VRB5      29.97F
SAN CLEMENTE I CLOUDY    72  57  60 W5        29.92F
SAN NICOLAS IS PTSUNNY   71  59  65 NW14      29.93F

$$

MARINE AND OFFSHORE BUOY REPORTS

STATION/POSITION SKY/WX   TEMP    WIND        PRES    SWELL
                          AIR SEA DIR/SP/G            HT/PER/DIR
                          (F)     (DEG/KT/KT) (MB)    (FT/S/D)
TANNER BANKS               67 68  310/ 10/ 12 1013.5F   5/280/11
S CLEMENTE BASIN           68 71  260/  8/ 10 1013.3F   3/200/13
SO. S. ROSA ISLA           65 67  320/ 14/ 16 1012.4F   5/11
W. S. BARBARA CH           65 67  310/  8/ 10 1012.7F   5/260/11
M. S. BARBARA CH           69 72  230/  2/  4 1013.9F
S. MONICA BASIN            67 70   40/  4/  6 1013.3F   3/240/11
S PEDRO CHANNEL               73                N/A     2/240/12
DANA POINT                    74                N/A     2/200/13
OCEANSIDE OFFSHR              75                N/A     2/210/13
TORREY PINES OTR              74                N/A     3/230/13
LA JOLLA 1                 71 74  260/  4/  6 1013.6F
MISSION BAY BUOY              74                N/A     3/240/11
SAN DIEGO BAY                 77              1014.2F
POINT LOMA SOUTH              73                N/A     2/220/12

$$



USA.gov is the U.S. government's official web portal to all federal, state and local government web resources and services.